{"data":{"norad_id":57841,"intl_designator":"2023-141B","name":"STARLINK-30410","alt_names":[],"object_type":"PAYLOAD","status":"ACTIVE","operator":null,"country":"US","launch_date":"2023-09-12","launch_site_code":"AFWTR","launch_vehicle":null,"mission":null,"orbit_class":"UNKNOWN","rcs_meters":null,"size_class":null,"mass_kg":null,"dimensions":null,"purposes":["comms"],"wikipedia_slug":null,"has_3d_model":false,"image_url":null,"decayed_at":null,"tle_current":{"epoch":"2026-09-19T21:52:43.015872Z","epoch_age_seconds":185475,"freshness":"STALE","line1":"1 57841U 23141B   26262.91160898  .00002094  00000+0  79208-4 0  9990","line2":"2 57841  53.1597 100.4136 0001294  88.9080 271.2070 15.31700520170080","mean_motion":15.3170052,"eccentricity":0.0001294,"inclination_deg":53.1597,"raan_deg":100.4136,"arg_perigee_deg":88.908,"mean_anomaly_deg":271.207,"bstar":7.9208e-5,"rev_number":17008,"period_min":94.013156044368,"perigee_km":469.85220065054,"apogee_km":471.62468961575,"semimajor_km":6848.8754451331,"source":"CELESTRAK","updated_at":"2026-09-21T09:00:33.711485Z"}}}